Regional Weather Roundup
Issued by NWS

Home | Current Version | Previous Version | Graphics & Text | Print | Product List | Glossary Off
Versions: 1 2 3 4 5 6 7 8 9 10 11 12 13 14 15 16 17 18 19 20 21 22 23 24 25 26 27 28 29 30 31 32 33 34 35 36 37 38 39 40 41 42 43 44 45 46 47 48 49 50

000
ASUS43 KTOP 280659
RWRKS

WEATHER ROUNDUP FOR KANSAS
NATIONAL WEATHER SERVICE GOODLAND KS
200 AM CDT TUE APR 28 2015

NOTE:  "FAIR" INDICATES FEW OR NO CLOUDS BELOW 12,000 FEET WITH NO
SIGNIFICANT WEATHER AND/OR OBSTRUCTIONS TO VISIBILITY.

KSZ001>006-013>018-027>032-041>047-280800-
NORTHWEST KANSAS

CITY           SKY/WX    TMP DP  RH WIND       PRES   REMARKS
GOODLAND       MOCLDY    39  35  86 W8        30.28R
HAYS           CLEAR     39  28  65 NW8       30.20S
HILL CITY      CLEAR     40  35  83 NW3       30.24R
RUSSELL        PTCLDY    44  35  70 NW8       30.18S
$$

KSZ061>065-074>080-084>089-280800-
SOUTHWEST KANSAS

CITY           SKY/WX    TMP DP  RH WIND       PRES   REMARKS
DODGE CITY     CLOUDY    38  31  76 NW8       30.19S
ELKHART          N/A     41  32  71 NW6         N/A
GARDEN CITY    MOCLDY    34  29  82 N9        30.21S
GREAT BEND     MOCLDY    43  34  70 NW5       30.19R
LIBERAL        MOCLDY    43  36  75 N8        30.21S
$$

KSZ066>073-081>083-090>101-280800-
SOUTHEAST KANSAS

CITY           SKY/WX    TMP DP  RH WIND       PRES   REMARKS
CHANUTE        CLOUDY    52  39  61 NE6       30.10R
COFFEYVILLE    CLOUDY    54  41  61 NE7       30.07S
HUTCHINSON     CLOUDY    50  36  58 N8        30.15S
MEDICINE LODGE   N/A     46  40  79 N5        30.13S
NEWTON         CLOUDY    46  36  66 N6        30.15S
PARSONS        CLOUDY    54  40  59 NE5       30.09S
WICHITA INTL   CLOUDY    52  38  58 N7        30.12S
WICHITA JABRA  CLOUDY    47  39  74 N8        30.12S
WINFIELD       CLOUDY    51  41  68 NE3       30.11R
$$

KSZ007>012-019>026-033>040-048>060-102>105-280800-
NORTHEAST KANSAS

CITY           SKY/WX    TMP DP  RH WIND       PRES   REMARKS
CONCORDIA      MOCLDY    47  35  63 NW3       30.18R
EMPORIA        CLOUDY    48  39  71 NW3       30.12S
LAWRENCE       MOCLDY    44  38  79 CALM      30.14S
MANHATTAN      PTCLDY    41  38  89 CALM      30.16R
OLATHE IND     CLOUDY    48  38  68 NE6       30.13F
OLATHE EXE     CLOUDY    51  37  58 NE6       30.12S
SALINA         MOCLDY    46  37  71 NW8       30.17R
TOPEKA BILLARD MOCLDY    46  40  79 CALM      30.14S
TOPEKA FORBES  MOCLDY    48  38  68 N3        30.13S
$$



USA.gov is the U.S. government's official web portal to all federal, state and local government web resources and services.